Погода в Райконкоски

Россия / Республика Карелия     61°55′26″N   31°33′46″E
темп.,
°C
ветер,
м/с
пор.,
м/с
влажн.,
%
обл.,
%
осадки,
мм/ч
давл.,
гПа
погр.,
м
10 апреля, сб
сб1000:00+1ююз81797100 0.8 10021336
03:00+1ююз71697100 1.3 10021459
06:00+1ююз71597100 0.5 10031317
09:00+1ююз71497100 0.9 10041210
12:00+4ююз71484100 0.4 10051464
15:00+4ююз71578100 1.1 10061624
18:00+2ююз7147413 0.0 10071225
21:000юз4128590 0.1 1009602
11 апреля, вс
вс1100:00−1юз5138837 0.1 1011712
03:00−2ююз413926 0.1 1014475
06:00−1ююз5159217 0.0 1015545
09:00+2юз514825 0.0 1018734
12:00+6зюз513685 0.0 10201793
15:00+6зюз59645 0.1 10231481
18:00+5зюз386786 0.0 1025349
21:000ююз2592100 0.0 102773
12 апреля, пн
пн1200:00−1ю1195100 0.0 102924
03:00−1ююв119694 0.0 103019
06:00−2вюв2293100 0.0 102937
09:00+3юв3769100 0.0 1028251
12:00+2в3884100 0.3 1027255
15:00+6юв3886100 0.6 1025400
18:00+8ююв388777 0.0 1023264
21:00+4ююв2892100 0.0 1023134
13 апреля, вт
вт1300:00+4ююв2590100 0.0 102366
03:00+3ююв239296 0.0 102241
06:00+2юв2495100 0.0 102058
09:00+6ююв3788100 0.0 1019211
12:00+9ю3678100 0.0 1019389
15:00+10ю367287 0.0 1019527
18:00+9ю268089 0.0 1019305
21:00+6ююз249089 0.0 102095
14 апреля, ср
ср1400:00+6ююз119392 0.0 102016
03:00+5юв129581 0.0 101913
06:00+6ююв249297 0.0 101990
09:00+8юв2685100 0.0 1017226
12:00+12ю3672100 0.0 1016709
15:00+13ю3573100 0.1 10131052
18:00+7зюз2499100 2.6 1012201
21:00+6сз4894100 3.8 1013404